Weather History for Corpus Christi NAS, TX

Change the Weather History Date:

Wednesday, September 26, 2012

  Actual Average Record
Temperature  
Mean Temperature 84 °F -  
Max Temperature 90 °F 85 °F 93 °F (2005)
Min Temperature 79 °F 69 °F 57 °F (2000)
Cooling Degree Days 19    
Growing Degree Days 34 (Base 50)    
Moisture  
Dew Point 73 °F    
Average Humidity 71    
Maximum Humidity 79    
Minimum Humidity 55    
Precipitation  
Precipitation 0.00 in - - ()
Sea Level Pressure  
Sea Level Pressure 29.96 in    
Wind  
Wind Speed 14 mph (SE)    
Max Wind Speed 18 mph    
Max Gust Speed 23 mph    
Visibility 10 miles    
Events      
Averages and records for this station are not official NWS values.
T = Trace of Precipitation, MM = Missing Value Source: NWS Daily Summary

Daily Weather History Graph

Daily Weather History Graph

Search for Another Location

Airport:

Trip Planner

Search our weather history database for the weather conditions in past years. The results will help you decide how hot, cold, wet, or windy it might be!

Date:

Astronomy

Sep. 26, 2012 Rise Set
Actual Time 7:19 AM CDT 7:20 PM CDT
Civil Twilight 6:56 AM CDT 7:43 PM CDT
Nautical Twilight 6:29 AM CDT 8:10 PM CDT
Astronomical Twilight 6:01 AM CDT 8:38 PM CDT
Moon 5:08 PM CDT (9/26) 4:02 AM CDT (9/26)
Length of Visible Light 12h 47m
Length of Day
12h 00m
Waxing Gibbous, 88% of the Moon is Illuminated
Sep 26
Waxing Gibbous
Sep 29
Full
Oct 8
Last Quarter
Oct 15
New
Oct 21
First Quarter

Hourly Weather History & Observations

Time (CDT) Temp. Heat Index Dew Point Humidity Pressure Visibility Wind Dir Wind Speed Gust Speed Precip Events Conditions
12:56 AM 80.1 °F 83.6 °F 71.1 °F 74% 29.95 in 10.0 mi SE 13.8 mph - N/A   Clear
1:56 AM 81.0 °F 85.8 °F 73.0 °F 77% 29.94 in 10.0 mi SSE 15.0 mph - N/A   Partly Cloudy
2:56 AM 81.0 °F 85.2 °F 72.0 °F 74% 29.94 in 10.0 mi SE 17.3 mph - N/A   Scattered Clouds
3:56 AM 80.1 °F 83.8 °F 72.0 °F 76% 29.93 in 10.0 mi SSE 11.5 mph - N/A   Partly Cloudy
4:56 AM 79.0 °F - 70.0 °F 74% 29.92 in 10.0 mi SSE 11.5 mph - N/A   Partly Cloudy
5:56 AM 79.0 °F - 70.0 °F 74% 29.93 in 10.0 mi SE 11.5 mph - N/A   Clear
6:56 AM 79.0 °F - 71.1 °F 77% 29.95 in 10.0 mi SE 10.4 mph - N/A   Scattered Clouds
7:56 AM 80.1 °F 83.6 °F 71.1 °F 74% 29.96 in 10.0 mi SSE 9.2 mph - N/A   Scattered Clouds
8:56 AM 84.0 °F 89.6 °F 72.0 °F 67% 29.97 in 10.0 mi SE 10.4 mph - N/A   Scattered Clouds
9:56 AM 84.0 °F 89.6 °F 72.0 °F 67% 29.99 in 10.0 mi SE 15.0 mph 19.6 mph N/A   Scattered Clouds
10:56 AM 86.0 °F 91.5 °F 71.1 °F 61% 30.00 in 10.0 mi SE 13.8 mph - N/A   Mostly Cloudy
11:56 AM 88.0 °F 94.7 °F 72.0 °F 59% 30.00 in 10.0 mi SE 17.3 mph - N/A   Mostly Cloudy
12:56 PM 87.1 °F 94.5 °F 73.0 °F 63% 29.98 in 10.0 mi ESE 16.1 mph - N/A   Mostly Cloudy
1:56 PM 89.1 °F 96.0 °F 72.0 °F 57% 29.96 in 10.0 mi ESE 17.3 mph - N/A   Mostly Cloudy
2:56 PM 89.1 °F 95.0 °F 71.1 °F 55% 29.95 in 10.0 mi ESE 17.3 mph - N/A   Mostly Cloudy
3:56 PM 89.1 °F 97.0 °F 73.0 °F 59% 29.94 in 10.0 mi ESE 18.4 mph - N/A   Mostly Cloudy
4:56 PM 86.0 °F 93.0 °F 73.0 °F 65% 29.93 in 10.0 mi ESE 18.4 mph - N/A   Mostly Cloudy
5:56 PM 84.0 °F 91.2 °F 73.9 °F 72% 29.94 in 10.0 mi ESE 16.1 mph - N/A   Mostly Cloudy
6:56 PM 82.9 °F 89.4 °F 73.9 °F 74% 29.95 in 10.0 mi SE 15.0 mph - N/A   Mostly Cloudy
7:56 PM 82.0 °F 88.6 °F 75.0 °F 79% 29.96 in 10.0 mi ESE 16.1 mph - N/A   Mostly Cloudy
8:56 PM 82.0 °F 88.6 °F 75.0 °F 79% 29.96 in 10.0 mi ESE 16.1 mph 23.0 mph N/A   Mostly Cloudy
9:56 PM 82.0 °F 88.6 °F 75.0 °F 79% 29.98 in 10.0 mi SE 18.4 mph - N/A   Mostly Cloudy
10:56 PM 82.0 °F 88.6 °F 75.0 °F 79% 29.99 in 10.0 mi SE 13.8 mph - N/A   Mostly Cloudy
11:56 PM 82.0 °F 88.6 °F 75.0 °F 79% 29.99 in 10.0 mi SE 12.7 mph - N/A   Mostly Cloudy